Waterloo, IA

3:36 PM CDT on July 25, 2017 (GMT -0500)
Waterloo Municipal

Weather History for KALO - March, 2013

Change the Weather History Date:

Saturday, March 2, 2013

  Actual Average Record
Temperature  
Mean Temperature 13 °F 30 °F  
Max Temperature 26 °F 38 °F 71 °F (1923)
Min Temperature 0 °F 21 °F -15 °F (2014)
Degree Days  
Heating Degree Days 52 35  
Month to date heating degree days 99 71  
Since 1 July heating degree days 5309 5490  
Cooling Degree Days 0 0  
Month to date cooling degree days 0 0  
Year to date cooling degree days 0 0  
Moisture  
Dew Point 6 °F    
Average Humidity 75    
Maximum Humidity 95    
Minimum Humidity 55    
Precipitation  
Precipitation 0.00 in 0.05 in 0.88 in (1965)
Month to date precipitation T 0.10  
Year to date precipitation 3.08 1.92  
Snow  
Snow 0.00 in 0.20 in 2.60 in (1965)
Month to date snowfall T 0.4  
Since 1 July snowfall 37.1 29.3  
Snow Depth 6.00 in    
Sea Level Pressure  
Sea Level Pressure 30.28 in    
Wind  
Wind Speed 2 mph (NW)    
Max Wind Speed 8 mph    
Max Gust Speed 10 mph    
Visibility 8 miles    
Events      
T = Trace of Precipitation, MM = Missing Value Source: NWS Daily Summary

Daily Weather History Graph

Daily Weather History Graph

Search for Another Location

Airport or City:

Trip Planner

Search our weather history database for the weather conditions in past years. The results will help you decide how hot, cold, wet, or windy it might be!

Date:

Astronomy

Mar. 02, 2013 Rise Set
Actual Time 6:43 AM CST 6:00 PM CST
Civil Twilight 6:14 AM CST 6:29 PM CST
Nautical Twilight 5:42 AM CST 7:01 PM CST
Astronomical Twilight 5:09 AM CST 7:34 PM CST
Moon 11:49 PM CST (3/2) 9:03 AM CST (3/2)
Length of Visible Light 12h 14m
Length of Day
11h 17m
Waning Gibbous, 74% of the Moon is Illuminated
Mar 2
Waning Gibbous
Mar 4
Last Quarter
Mar 11
New
Mar 19
First Quarter
Mar 27
Full

Hourly Weather History & Observations

Time (CST) Temp. Windchill Dew Point Humidity Pressure Visibility Wind Dir Wind Speed Gust Speed Precip Events Conditions
12:54 AM 12.2 °F 2.9 °F 8.6 °F 85% 30.28 in 10.0 mi WNW 5.8 mph - N/A   Clear
1:54 AM 8.1 °F - 5.0 °F 87% 30.33 in 6.0 mi Calm Calm - N/A   Clear
2:54 AM 9.0 °F 2.4 °F 7.0 °F 92% 30.32 in 8.0 mi WNW 3.5 mph - N/A   Clear
3:54 AM 7.0 °F 0.1 °F 3.9 °F 87% 30.32 in 6.0 mi WNW 3.5 mph - N/A   Clear
4:54 AM 5.0 °F - 1.9 °F 87% 30.33 in 10.0 mi Calm Calm - N/A   Clear
5:54 AM 1.4 °F - -2.2 °F 85% 30.28 in 9.0 mi Calm Calm - N/A   Clear
6:54 AM 3.0 °F - -0.0 °F 87% 30.33 in 9.0 mi Calm Calm - N/A   Clear
7:54 AM 3.0 °F -4.4 °F -0.0 °F 87% 30.35 in 10.0 mi WNW 3.5 mph - N/A   Clear
8:54 AM 10.0 °F 0.4 °F 6.1 °F 84% 30.35 in 10.0 mi NW 5.8 mph - N/A   Clear
9:54 AM 14.0 °F 6.5 °F 9.0 °F 80% 30.35 in 10.0 mi NW 4.6 mph - N/A   Clear
10:54 AM 19.9 °F - 10.0 °F 65% 30.34 in 10.0 mi Calm Calm - N/A   Clear
11:54 AM 19.0 °F - 10.9 °F 71% 30.32 in 10.0 mi Calm Calm - N/A   Clear
12:54 PM 25.0 °F - 12.0 °F 58% 30.31 in 10.0 mi Calm Calm - N/A   Clear
1:54 PM 26.1 °F 17.6 °F 12.0 °F 55% 30.28 in 10.0 mi NW 8.1 mph - N/A   Clear
2:54 PM 26.1 °F 19.4 °F 12.9 °F 58% 30.27 in 10.0 mi NW 5.8 mph - N/A   Clear
3:54 PM 26.1 °F 17.6 °F 14.0 °F 60% 30.27 in 10.0 mi NW 8.1 mph - N/A   Clear
4:54 PM 24.1 °F 17.0 °F 14.0 °F 65% 30.27 in 10.0 mi NW 5.8 mph - N/A   Clear
5:54 PM 21.0 °F - 12.9 °F 71% 30.27 in 10.0 mi Calm Calm - N/A   Clear
6:54 PM 18.0 °F 12.7 °F 10.9 °F 74% 30.27 in 10.0 mi WNW 3.5 mph - N/A   Clear
7:54 PM 10.0 °F - 7.0 °F 87% 30.27 in 10.0 mi Calm Calm - N/A   Clear
8:54 PM 7.0 °F - 3.0 °F 84% 30.27 in 5.0 mi Calm Calm - N/A   Clear
9:54 PM 1.9 °F - -0.9 °F 88% 30.27 in 8.0 mi Calm Calm - N/A   Mostly Cloudy
10:29 PM 1.4 °F - -2.2 °F 85% 30.20 in 10.0 mi Calm Calm - N/A   Mostly Cloudy
10:54 PM 1.9 °F - -2.0 °F 83% 30.25 in 10.0 mi Calm Calm - N/A   Mostly Cloudy
11:04 PM 1.4 °F - -0.4 °F 92% 30.19 in 2.0 mi Calm Calm - N/A   Overcast
11:11 PM 3.2 °F - 1.4 °F 92% 30.19 in 1.0 mi Calm Calm - N/A   Overcast
11:17 PM 3.2 °F - 1.4 °F 92% 30.19 in 4.0 mi Calm Calm - N/A   Overcast
11:54 PM 6.1 °F - 3.0 °F 87% 30.23 in 9.0 mi Calm Calm - N/A   Overcast